Regional Weather Roundup
Issued by NWS Goodland, KS

Home | Current Version | Previous Version | Graphics & Text | Print | Product List | Glossary On
Versions: 1 2 3 4 5 6 7 8 9 10 11 12 13 14 15 16 17 18 19 20 21 22 23 24 25 26 27 28 29 30 31 32 33 34 35 36 37 38 39 40 41 42 43 44 45 46 47 48 49 50
000
ASUS43 KGLD 301959
RWRGLD

GOODLAND FORECAST AREA HOURLY WEATHER ROUNDUP
NATIONAL WEATHER SERVICE GOODLAND KS
200 PM MDT THU MAR 30 2017

...OFFICIAL OBSERVATIONS...

CITY           SKY/WX    TMP DP  RH WIND       PRES   REMARKS
GOODLAND KS    SUNNY     55  41  59 N6        29.74F
HILL CITY KS   CLOUDY    45  38  76 N10       29.79F
IMPERIAL NEB   SUNNY     54  34  46 CALM      29.74F
MCCOOK NEB     PTSUNNY   48  38  68 MISG      29.76F
AKRON CO       SUNNY     60  32  34 N6        29.72F
BURLINGTON CO  SUNNY     56  41  57 S5        29.75F
LIMON CO       SUNNY     63  28  26 S9        29.73F
$$

...UNOFFICIAL OBSERVATIONS...

CITY           SKY/WX    TMP DP  RH WIND       PRES   REMARKS
NORTON KS      CLOUDY    41  34  75 NW9       29.77F
SHARON SPRINGS   N/A     55  44  67 CALM        N/A
TRENTON NEB      N/A     52  32  46 CALM        N/A
KIT CARSON CO    N/A     59  39  46 MISG        N/A
YUMA CO        FAIR      55  28  35 E5        29.73F
$$



USA.gov is the U.S. government's official web portal to all federal, state and local government web resources and services.